,Coso Junction,Coso Junction
,PM10_1HR,PM10_1HR
,UG/M3,UG/M3
Date,Value,Null Code
01-Jun-2023 00:00,14.5,
01-Jun-2023 01:00,15.5,
01-Jun-2023 02:00,16.7,
01-Jun-2023 03:00,16.5,
01-Jun-2023 04:00,14.9,
01-Jun-2023 05:00,18.9,
01-Jun-2023 06:00,21.9,
01-Jun-2023 07:00,14.5,
01-Jun-2023 08:00,12.1,
01-Jun-2023 09:00,14.4,
01-Jun-2023 10:00,27.1,
01-Jun-2023 11:00,36.4,
01-Jun-2023 12:00,48.4,
01-Jun-2023 13:00,34.6,
01-Jun-2023 14:00,29.7,
01-Jun-2023 15:00,22.9,
01-Jun-2023 16:00,27.7,
01-Jun-2023 17:00,18.8,
01-Jun-2023 18:00,19.1,
01-Jun-2023 19:00,20.5,
01-Jun-2023 20:00,17.9,
01-Jun-2023 21:00,26,
01-Jun-2023 22:00,30.4,
01-Jun-2023 23:00,29.6,
02-Jun-2023 00:00,29.3,
02-Jun-2023 01:00,27.9,
02-Jun-2023 02:00,27.5,
02-Jun-2023 03:00,26.7,
02-Jun-2023 04:00,26.3,
02-Jun-2023 05:00,19.9,
02-Jun-2023 06:00,20.7,
02-Jun-2023 07:00,16.4,
02-Jun-2023 08:00,18.9,
02-Jun-2023 09:00,18.2,
02-Jun-2023 10:00,22.1,
02-Jun-2023 11:00,31.9,
02-Jun-2023 12:00,22.6,
02-Jun-2023 13:00,18,
02-Jun-2023 14:00,20.2,
02-Jun-2023 15:00,18.8,
02-Jun-2023 16:00,18.5,
02-Jun-2023 17:00,19.8,
02-Jun-2023 18:00,27.9,
02-Jun-2023 19:00,24.7,
02-Jun-2023 20:00,25.2,
02-Jun-2023 21:00,24.1,
02-Jun-2023 22:00,22,
02-Jun-2023 23:00,22.4,
03-Jun-2023 00:00,23.2,
03-Jun-2023 01:00,22.4,
03-Jun-2023 02:00,18.7,
03-Jun-2023 03:00,19.1,
03-Jun-2023 04:00,15.5,
03-Jun-2023 05:00,18.7,
03-Jun-2023 06:00,21.1,
03-Jun-2023 07:00,19.8,
03-Jun-2023 08:00,24.2,
03-Jun-2023 09:00,16.1,
03-Jun-2023 10:00,15.5,
03-Jun-2023 11:00,16.4,
03-Jun-2023 12:00,18.7,
03-Jun-2023 13:00,19.1,
03-Jun-2023 14:00,19.8,
03-Jun-2023 15:00,26.2,
03-Jun-2023 16:00,23,
03-Jun-2023 17:00,20.4,
03-Jun-2023 18:00,18.9,
03-Jun-2023 19:00,20.5,
03-Jun-2023 20:00,25.4,
03-Jun-2023 21:00,25.8,
03-Jun-2023 22:00,26.6,
03-Jun-2023 23:00,24.1,
04-Jun-2023 00:00,20.7,
04-Jun-2023 01:00,19,
04-Jun-2023 02:00,18.5,
04-Jun-2023 03:00,17.2,
04-Jun-2023 04:00,17.8,
04-Jun-2023 05:00,18.1,
04-Jun-2023 06:00,15.2,
04-Jun-2023 07:00,13.2,
04-Jun-2023 08:00,26.3,
04-Jun-2023 09:00,13.8,
04-Jun-2023 10:00,11,
04-Jun-2023 11:00,12.2,
04-Jun-2023 12:00,29.7,
04-Jun-2023 13:00,23.2,
04-Jun-2023 14:00,17.9,
04-Jun-2023 15:00,34.4,
04-Jun-2023 16:00,54.3,
04-Jun-2023 17:00,25.3,
04-Jun-2023 18:00,19.5,
04-Jun-2023 19:00,14.8,
04-Jun-2023 20:00,19.4,
04-Jun-2023 21:00,16.7,
04-Jun-2023 22:00,26.7,
04-Jun-2023 23:00,65,
05-Jun-2023 00:00,64.1,
05-Jun-2023 01:00,30.4,
05-Jun-2023 02:00,18.4,
05-Jun-2023 03:00,13.1,
05-Jun-2023 04:00,11.7,
05-Jun-2023 05:00,11.7,
05-Jun-2023 06:00,13.8,
05-Jun-2023 07:00,15.8,
05-Jun-2023 08:00,15.8,
05-Jun-2023 09:00,16.2,
05-Jun-2023 10:00,11.6,
05-Jun-2023 11:00,39.3,
05-Jun-2023 12:00,38.1,
05-Jun-2023 13:00,22.4,
05-Jun-2023 14:00,26,
05-Jun-2023 15:00,16.7,
05-Jun-2023 16:00,23,
05-Jun-2023 17:00,53.3,
05-Jun-2023 18:00,51.7,
05-Jun-2023 19:00,45.3,
05-Jun-2023 20:00,39.5,
05-Jun-2023 21:00,37.1,
05-Jun-2023 22:00,33.2,
05-Jun-2023 23:00,29.9,
06-Jun-2023 00:00,29.8,
06-Jun-2023 01:00,29.2,
06-Jun-2023 02:00,28,
06-Jun-2023 03:00,30.1,
06-Jun-2023 04:00,30.5,
06-Jun-2023 05:00,29.7,
06-Jun-2023 06:00,23.8,
06-Jun-2023 07:00,31.4,
06-Jun-2023 08:00,29.8,
06-Jun-2023 09:00,13.3,
06-Jun-2023 10:00,22.5,
06-Jun-2023 11:00,21.8,
06-Jun-2023 12:00,19.8,
06-Jun-2023 13:00,11,
06-Jun-2023 14:00,20.8,
06-Jun-2023 15:00,24,
06-Jun-2023 16:00,33.9,
06-Jun-2023 17:00,20.7,
06-Jun-2023 18:00,18.9,
06-Jun-2023 19:00,23.8,
06-Jun-2023 20:00,22.9,
06-Jun-2023 21:00,34.3,
06-Jun-2023 22:00,28.9,
06-Jun-2023 23:00,26.2,
07-Jun-2023 00:00,9.3,
07-Jun-2023 01:00,30.6,
07-Jun-2023 02:00,23,
07-Jun-2023 03:00,22.8,
07-Jun-2023 04:00,15.8,
07-Jun-2023 05:00,11.1,
07-Jun-2023 06:00,12.8,
07-Jun-2023 07:00,8.5,
07-Jun-2023 08:00,9.1,
07-Jun-2023 09:00,9.7,
07-Jun-2023 10:00,12.2,
07-Jun-2023 11:00,11.9,
07-Jun-2023 12:00,13.1,
07-Jun-2023 13:00,8.3,
07-Jun-2023 14:00,5.1,
07-Jun-2023 15:00,4.7,
07-Jun-2023 16:00,2.8,
07-Jun-2023 17:00,4.3,
07-Jun-2023 18:00,8.6,
07-Jun-2023 19:00,5.9,
07-Jun-2023 20:00,6.8,
07-Jun-2023 21:00,9,
07-Jun-2023 22:00,7.8,
07-Jun-2023 23:00,8.3,
08-Jun-2023 00:00,9.5,
08-Jun-2023 01:00,6.9,
08-Jun-2023 02:00,7.8,
08-Jun-2023 03:00,10.8,
08-Jun-2023 04:00,8.5,
08-Jun-2023 05:00,6.4,
08-Jun-2023 06:00,3.5,
08-Jun-2023 07:00,9.7,
08-Jun-2023 08:00,4.3,
08-Jun-2023 09:00,6.5,
08-Jun-2023 10:00,6,
08-Jun-2023 11:00,7.1,
08-Jun-2023 12:00,7.9,
08-Jun-2023 13:00,12.6,
08-Jun-2023 14:00,11.9,
08-Jun-2023 15:00,5.7,
08-Jun-2023 16:00,10.3,
08-Jun-2023 17:00,10.3,
08-Jun-2023 18:00,13,
08-Jun-2023 19:00,15.5,
08-Jun-2023 20:00,18.1,
08-Jun-2023 21:00,14.9,
08-Jun-2023 22:00,15.5,
08-Jun-2023 23:00,14.9,
09-Jun-2023 00:00,15.1,
09-Jun-2023 01:00,15.9,
09-Jun-2023 02:00,15.5,
09-Jun-2023 03:00,16.6,
09-Jun-2023 04:00,16.5,
09-Jun-2023 05:00,23.1,
09-Jun-2023 06:00,7.1,
09-Jun-2023 07:00,9.2,
09-Jun-2023 08:00,7,
09-Jun-2023 09:00,7,
09-Jun-2023 10:00,12.6,
09-Jun-2023 11:00,15.6,
09-Jun-2023 12:00,15.7,
09-Jun-2023 13:00,12.5,
09-Jun-2023 14:00,15.9,
09-Jun-2023 15:00,12.7,
09-Jun-2023 16:00,14.6,
09-Jun-2023 17:00,14.3,
09-Jun-2023 18:00,15.9,
09-Jun-2023 19:00,22.6,
09-Jun-2023 20:00,20.5,
09-Jun-2023 21:00,27.5,
09-Jun-2023 22:00,26.9,
09-Jun-2023 23:00,27.2,
10-Jun-2023 00:00,30.5,
10-Jun-2023 01:00,26.8,
10-Jun-2023 02:00,25.7,
10-Jun-2023 03:00,25.8,
10-Jun-2023 04:00,24.9,
10-Jun-2023 05:00,24.2,
10-Jun-2023 06:00,25.4,
10-Jun-2023 07:00,30.2,
10-Jun-2023 08:00,24.9,
10-Jun-2023 09:00,20.1,
10-Jun-2023 10:00,18.1,
10-Jun-2023 11:00,15.7,
10-Jun-2023 12:00,16.5,
10-Jun-2023 13:00,15.7,
10-Jun-2023 14:00,14.6,
10-Jun-2023 15:00,19.9,
10-Jun-2023 16:00,19.9,
10-Jun-2023 17:00,18.5,
10-Jun-2023 18:00,21.1,
10-Jun-2023 19:00,23.6,
10-Jun-2023 20:00,20.1,
10-Jun-2023 21:00,10.9,
10-Jun-2023 22:00,10.9,
10-Jun-2023 23:00,13.4,
11-Jun-2023 00:00,20.7,
11-Jun-2023 01:00,31.2,
11-Jun-2023 02:00,29.8,
11-Jun-2023 03:00,9.2,
11-Jun-2023 04:00,13.2,
11-Jun-2023 05:00,11.9,
11-Jun-2023 06:00,20.8,
11-Jun-2023 07:00,9.3,
11-Jun-2023 08:00,5.6,
11-Jun-2023 09:00,3.5,
11-Jun-2023 10:00,2.6,
11-Jun-2023 11:00,2.4,
11-Jun-2023 12:00,7.9,
11-Jun-2023 13:00,1.2,
11-Jun-2023 14:00,5,
11-Jun-2023 15:00,9.6,
11-Jun-2023 16:00,15,
11-Jun-2023 17:00,6.6,
11-Jun-2023 18:00,9,
11-Jun-2023 19:00,7.9,
11-Jun-2023 20:00,6.9,
11-Jun-2023 21:00,7,
11-Jun-2023 22:00,7,
11-Jun-2023 23:00,7,
12-Jun-2023 00:00,7,
12-Jun-2023 01:00,5,
12-Jun-2023 02:00,5.9,
12-Jun-2023 03:00,6.4,
12-Jun-2023 04:00,7.1,
12-Jun-2023 05:00,5.2,
12-Jun-2023 06:00,7.3,
12-Jun-2023 07:00,5.3,
12-Jun-2023 08:00,4.5,
12-Jun-2023 09:00,4.9,
12-Jun-2023 10:00,4.2,
12-Jun-2023 11:00,11,
12-Jun-2023 12:00,4.5,
12-Jun-2023 13:00,8.4,
12-Jun-2023 14:00,13.1,
12-Jun-2023 15:00,8.8,
12-Jun-2023 16:00,11.4,
12-Jun-2023 17:00,7.8,
12-Jun-2023 18:00,8.4,
12-Jun-2023 19:00,8.4,
12-Jun-2023 20:00,15.3,
12-Jun-2023 21:00,11.9,
12-Jun-2023 22:00,11.7,
12-Jun-2023 23:00,10.5,
13-Jun-2023 00:00,14.5,
13-Jun-2023 01:00,6,
13-Jun-2023 02:00,5,
13-Jun-2023 03:00,7.4,
13-Jun-2023 04:00,6.8,
13-Jun-2023 05:00,5.5,
13-Jun-2023 06:00,7.6,
13-Jun-2023 07:00,5.6,
13-Jun-2023 08:00,,AT
13-Jun-2023 09:00,,AT
13-Jun-2023 10:00,,AT
13-Jun-2023 11:00,,AT
13-Jun-2023 12:00,8.3,
13-Jun-2023 13:00,6.5,
13-Jun-2023 14:00,10.4,
13-Jun-2023 15:00,10,
13-Jun-2023 16:00,9.8,
13-Jun-2023 17:00,15.8,
13-Jun-2023 18:00,24,
13-Jun-2023 19:00,19.6,
13-Jun-2023 20:00,20.4,
13-Jun-2023 21:00,23.5,
13-Jun-2023 22:00,18.6,
13-Jun-2023 23:00,18.6,
14-Jun-2023 00:00,15.5,
14-Jun-2023 01:00,13.8,
14-Jun-2023 02:00,9.6,
14-Jun-2023 03:00,9,
14-Jun-2023 04:00,10.5,
14-Jun-2023 05:00,10.9,
14-Jun-2023 06:00,7.2,
14-Jun-2023 07:00,8.7,
14-Jun-2023 08:00,3.6,
14-Jun-2023 09:00,6.4,
14-Jun-2023 10:00,6.4,
14-Jun-2023 11:00,7.3,
14-Jun-2023 12:00,15.4,
14-Jun-2023 13:00,9.7,
14-Jun-2023 14:00,12.9,
14-Jun-2023 15:00,19.5,
14-Jun-2023 16:00,19.7,
14-Jun-2023 17:00,17.6,
14-Jun-2023 18:00,21,
14-Jun-2023 19:00,25.2,
14-Jun-2023 20:00,23.4,
14-Jun-2023 21:00,27.1,
14-Jun-2023 22:00,22.5,
14-Jun-2023 23:00,18.1,
15-Jun-2023 00:00,9.6,
15-Jun-2023 01:00,8.5,
15-Jun-2023 02:00,9.5,
15-Jun-2023 03:00,9.7,
15-Jun-2023 04:00,13.5,
15-Jun-2023 05:00,12.7,
15-Jun-2023 06:00,12,
15-Jun-2023 07:00,7.2,
15-Jun-2023 08:00,8.7,
15-Jun-2023 09:00,7.7,
15-Jun-2023 10:00,7.7,
15-Jun-2023 11:00,15.1,
15-Jun-2023 12:00,22.1,
15-Jun-2023 13:00,38.5,
15-Jun-2023 14:00,12.6,
15-Jun-2023 15:00,27,
15-Jun-2023 16:00,23,
15-Jun-2023 17:00,19,
15-Jun-2023 18:00,30.9,
15-Jun-2023 19:00,26,
15-Jun-2023 20:00,58.8,
15-Jun-2023 21:00,34,
15-Jun-2023 22:00,10,
15-Jun-2023 23:00,19.6,
16-Jun-2023 00:00,8.5,
16-Jun-2023 01:00,6.1,
16-Jun-2023 02:00,4.9,
16-Jun-2023 03:00,8.4,
16-Jun-2023 04:00,-3.2,
16-Jun-2023 05:00,11.9,
16-Jun-2023 06:00,10.3,
16-Jun-2023 07:00,9.7,
16-Jun-2023 08:00,9.8,
16-Jun-2023 09:00,9.3,
16-Jun-2023 10:00,11.4,
16-Jun-2023 11:00,19.4,
16-Jun-2023 12:00,9.8,
16-Jun-2023 13:00,14.9,
16-Jun-2023 14:00,17,
16-Jun-2023 15:00,15.5,
16-Jun-2023 16:00,20.1,
16-Jun-2023 17:00,18.9,
16-Jun-2023 18:00,24.2,
16-Jun-2023 19:00,25.5,
16-Jun-2023 20:00,24.8,
16-Jun-2023 21:00,24.8,
16-Jun-2023 22:00,22.6,
16-Jun-2023 23:00,22.5,
17-Jun-2023 00:00,18.7,
17-Jun-2023 01:00,10.2,
17-Jun-2023 02:00,9.9,
17-Jun-2023 03:00,11.2,
17-Jun-2023 04:00,16.4,
17-Jun-2023 05:00,13.6,
17-Jun-2023 06:00,12,
17-Jun-2023 07:00,9,
17-Jun-2023 08:00,7.8,
17-Jun-2023 09:00,9.6,
17-Jun-2023 10:00,13.9,
17-Jun-2023 11:00,15.2,
17-Jun-2023 12:00,11.2,
17-Jun-2023 13:00,15.1,
17-Jun-2023 14:00,15.1,
17-Jun-2023 15:00,20.3,
17-Jun-2023 16:00,25.4,
17-Jun-2023 17:00,28.2,
17-Jun-2023 18:00,21.2,
17-Jun-2023 19:00,29.7,
17-Jun-2023 20:00,20.3,
17-Jun-2023 21:00,23,
17-Jun-2023 22:00,21,
17-Jun-2023 23:00,22.8,
18-Jun-2023 00:00,17.6,
18-Jun-2023 01:00,16.9,
18-Jun-2023 02:00,20.2,
18-Jun-2023 03:00,21.2,
18-Jun-2023 04:00,19.2,
18-Jun-2023 05:00,19.4,
18-Jun-2023 06:00,13.2,
18-Jun-2023 07:00,12.2,
18-Jun-2023 08:00,,AW
18-Jun-2023 09:00,,AW
18-Jun-2023 10:00,,AW
18-Jun-2023 11:00,,AW
18-Jun-2023 12:00,,AW
18-Jun-2023 13:00,,AW
18-Jun-2023 14:00,,AW
18-Jun-2023 15:00,,AW
18-Jun-2023 16:00,,AW
18-Jun-2023 17:00,,AW
18-Jun-2023 18:00,,AW
18-Jun-2023 19:00,,AW
18-Jun-2023 20:00,,AW
18-Jun-2023 21:00,,AW
18-Jun-2023 22:00,,AW
18-Jun-2023 23:00,,AW
19-Jun-2023 00:00,,AW
19-Jun-2023 01:00,,AW
19-Jun-2023 02:00,,AW
19-Jun-2023 03:00,,AW
19-Jun-2023 04:00,,AW
19-Jun-2023 05:00,,AW
19-Jun-2023 06:00,,AW
19-Jun-2023 07:00,,AW
19-Jun-2023 08:00,,BA
19-Jun-2023 09:00,0,
19-Jun-2023 10:00,0,
19-Jun-2023 11:00,0,
19-Jun-2023 12:00,1.2,
19-Jun-2023 13:00,1.1,
19-Jun-2023 14:00,2.2,
19-Jun-2023 15:00,4.5,
19-Jun-2023 16:00,6.9,
19-Jun-2023 17:00,6.7,
19-Jun-2023 18:00,10.7,
19-Jun-2023 19:00,14.1,
19-Jun-2023 20:00,12.7,
19-Jun-2023 21:00,10.5,
19-Jun-2023 22:00,18.6,
19-Jun-2023 23:00,17.9,
20-Jun-2023 00:00,18.2,
20-Jun-2023 01:00,19.3,
20-Jun-2023 02:00,19.1,
20-Jun-2023 03:00,20.5,
20-Jun-2023 04:00,22.2,
20-Jun-2023 05:00,18,
20-Jun-2023 06:00,13.1,
20-Jun-2023 07:00,14.1,
20-Jun-2023 08:00,,BA
20-Jun-2023 09:00,,BA
20-Jun-2023 10:00,,BA
20-Jun-2023 11:00,,BA
20-Jun-2023 12:00,5.1,
20-Jun-2023 13:00,8,
20-Jun-2023 14:00,21.6,
20-Jun-2023 15:00,9.7,
20-Jun-2023 16:00,16.9,
20-Jun-2023 17:00,12.4,
20-Jun-2023 18:00,10.7,
20-Jun-2023 19:00,12.3,
20-Jun-2023 20:00,20.9,
20-Jun-2023 21:00,19.3,
20-Jun-2023 22:00,21.5,
20-Jun-2023 23:00,18.6,
21-Jun-2023 00:00,17.9,
21-Jun-2023 01:00,21.2,
21-Jun-2023 02:00,18.5,
21-Jun-2023 03:00,21.5,
21-Jun-2023 04:00,24.6,
21-Jun-2023 05:00,4.5,
21-Jun-2023 06:00,15.1,
21-Jun-2023 07:00,16.6,
21-Jun-2023 08:00,18.7,
21-Jun-2023 09:00,11.1,
21-Jun-2023 10:00,9.6,
21-Jun-2023 11:00,9,
21-Jun-2023 12:00,13.9,
21-Jun-2023 13:00,12.8,
21-Jun-2023 14:00,16.8,
21-Jun-2023 15:00,13.6,
21-Jun-2023 16:00,17.4,
21-Jun-2023 17:00,14.1,
21-Jun-2023 18:00,15.5,
21-Jun-2023 19:00,13.8,
21-Jun-2023 20:00,19.3,
21-Jun-2023 21:00,19,
21-Jun-2023 22:00,18.5,
21-Jun-2023 23:00,19.1,
22-Jun-2023 00:00,18.8,
22-Jun-2023 01:00,17.8,
22-Jun-2023 02:00,20.9,
22-Jun-2023 03:00,23.3,
22-Jun-2023 04:00,30.3,
22-Jun-2023 05:00,20.8,
22-Jun-2023 06:00,10.4,
22-Jun-2023 07:00,19.1,
22-Jun-2023 08:00,18.8,
22-Jun-2023 09:00,21.1,
22-Jun-2023 10:00,19.8,
22-Jun-2023 11:00,21,
22-Jun-2023 12:00,24,
22-Jun-2023 13:00,22.4,
22-Jun-2023 14:00,46.2,
22-Jun-2023 15:00,14.4,
22-Jun-2023 16:00,17.5,
22-Jun-2023 17:00,26.8,
22-Jun-2023 18:00,23.2,
22-Jun-2023 19:00,28.8,
22-Jun-2023 20:00,22,
22-Jun-2023 21:00,12.8,
22-Jun-2023 22:00,11.8,
22-Jun-2023 23:00,21.4,
23-Jun-2023 00:00,26.1,
23-Jun-2023 01:00,23.5,
23-Jun-2023 02:00,25.7,
23-Jun-2023 03:00,31.3,
23-Jun-2023 04:00,27.8,
23-Jun-2023 05:00,30.8,
23-Jun-2023 06:00,13.7,
23-Jun-2023 07:00,24,
23-Jun-2023 08:00,20.7,
23-Jun-2023 09:00,17.9,
23-Jun-2023 10:00,18.4,
23-Jun-2023 11:00,23,
23-Jun-2023 12:00,21.3,
23-Jun-2023 13:00,17.2,
23-Jun-2023 14:00,27.9,
23-Jun-2023 15:00,22.1,
23-Jun-2023 16:00,20.6,
23-Jun-2023 17:00,20.9,
23-Jun-2023 18:00,20.1,
23-Jun-2023 19:00,30.4,
23-Jun-2023 20:00,24.3,
23-Jun-2023 21:00,22.1,
23-Jun-2023 22:00,21.2,
23-Jun-2023 23:00,22.1,
24-Jun-2023 00:00,22.8,
24-Jun-2023 01:00,24.9,
24-Jun-2023 02:00,29.2,
24-Jun-2023 03:00,26.9,
24-Jun-2023 04:00,29,
24-Jun-2023 05:00,23.5,
24-Jun-2023 06:00,20.4,
24-Jun-2023 07:00,25.2,
24-Jun-2023 08:00,20.6,
24-Jun-2023 09:00,17.9,
24-Jun-2023 10:00,17.3,
24-Jun-2023 11:00,16.7,
24-Jun-2023 12:00,15.7,
24-Jun-2023 13:00,17.7,
24-Jun-2023 14:00,16.5,
24-Jun-2023 15:00,13.8,
24-Jun-2023 16:00,6.3,
24-Jun-2023 17:00,11.5,
24-Jun-2023 18:00,8.6,
24-Jun-2023 19:00,9.2,
24-Jun-2023 20:00,18.6,
24-Jun-2023 21:00,18,
24-Jun-2023 22:00,24.3,
24-Jun-2023 23:00,28.5,
25-Jun-2023 00:00,30.6,
25-Jun-2023 01:00,26.9,
25-Jun-2023 02:00,25.6,
25-Jun-2023 03:00,27,
25-Jun-2023 04:00,32.4,
25-Jun-2023 05:00,25.8,
25-Jun-2023 06:00,27.4,
25-Jun-2023 07:00,30.9,
25-Jun-2023 08:00,29.3,
25-Jun-2023 09:00,27.9,
25-Jun-2023 10:00,28.8,
25-Jun-2023 11:00,23.3,
25-Jun-2023 12:00,22.2,
25-Jun-2023 13:00,13.8,
25-Jun-2023 14:00,8.4,
25-Jun-2023 15:00,17.8,
25-Jun-2023 16:00,19.2,
25-Jun-2023 17:00,16.1,
25-Jun-2023 18:00,15.6,
25-Jun-2023 19:00,17,
25-Jun-2023 20:00,22.5,
25-Jun-2023 21:00,21.9,
25-Jun-2023 22:00,22.2,
25-Jun-2023 23:00,21.6,
26-Jun-2023 00:00,22.3,
26-Jun-2023 01:00,22.5,
26-Jun-2023 02:00,24.6,
26-Jun-2023 03:00,27,
26-Jun-2023 04:00,22.1,
26-Jun-2023 05:00,33.9,
26-Jun-2023 06:00,23.2,
26-Jun-2023 07:00,19.9,
26-Jun-2023 08:00,16.6,
26-Jun-2023 09:00,16.2,
26-Jun-2023 10:00,20.3,
26-Jun-2023 11:00,18.5,
26-Jun-2023 12:00,12.2,
26-Jun-2023 13:00,21.1,
26-Jun-2023 14:00,23.7,
26-Jun-2023 15:00,16,
26-Jun-2023 16:00,19.7,
26-Jun-2023 17:00,5.4,
26-Jun-2023 18:00,16.4,
26-Jun-2023 19:00,30.7,
26-Jun-2023 20:00,21.1,
26-Jun-2023 21:00,16.2,
26-Jun-2023 22:00,21.3,
26-Jun-2023 23:00,20,
27-Jun-2023 00:00,19.4,
27-Jun-2023 01:00,15.5,
27-Jun-2023 02:00,13.5,
27-Jun-2023 03:00,14.3,
27-Jun-2023 04:00,14.5,
27-Jun-2023 05:00,13.4,
27-Jun-2023 06:00,12.7,
27-Jun-2023 07:00,13.6,
27-Jun-2023 08:00,12.5,
27-Jun-2023 09:00,12.7,
27-Jun-2023 10:00,14.5,
27-Jun-2023 11:00,25.2,
27-Jun-2023 12:00,16.3,
27-Jun-2023 13:00,11.2,
27-Jun-2023 14:00,15.5,
27-Jun-2023 15:00,11.9,
27-Jun-2023 16:00,13.7,
27-Jun-2023 17:00,22,
27-Jun-2023 18:00,21.4,
27-Jun-2023 19:00,20.5,
27-Jun-2023 20:00,20.6,
27-Jun-2023 21:00,21.2,
27-Jun-2023 22:00,24.8,
27-Jun-2023 23:00,24.3,
28-Jun-2023 00:00,22.7,
28-Jun-2023 01:00,21.6,
28-Jun-2023 02:00,22.2,
28-Jun-2023 03:00,23.5,
28-Jun-2023 04:00,32,
28-Jun-2023 05:00,57.5,
28-Jun-2023 06:00,57.5,
28-Jun-2023 07:00,22.7,
28-Jun-2023 08:00,34.1,
28-Jun-2023 09:00,32.9,
28-Jun-2023 10:00,15.9,
28-Jun-2023 11:00,22.5,
28-Jun-2023 12:00,18.9,
28-Jun-2023 13:00,15.5,
28-Jun-2023 14:00,15.9,
28-Jun-2023 15:00,14,
28-Jun-2023 16:00,15.4,
28-Jun-2023 17:00,26.9,
28-Jun-2023 18:00,21.2,
28-Jun-2023 19:00,124.4,
28-Jun-2023 20:00,113.6,
28-Jun-2023 21:00,53,
28-Jun-2023 22:00,23.3,
28-Jun-2023 23:00,18.4,
29-Jun-2023 00:00,11.8,
29-Jun-2023 01:00,11.5,
29-Jun-2023 02:00,11,
29-Jun-2023 03:00,10.9,
29-Jun-2023 04:00,11.6,
29-Jun-2023 05:00,11.3,
29-Jun-2023 06:00,11,
29-Jun-2023 07:00,14.6,
29-Jun-2023 08:00,13.4,
29-Jun-2023 09:00,20.7,
29-Jun-2023 10:00,5.3,
29-Jun-2023 11:00,5.9,
29-Jun-2023 12:00,5.4,
29-Jun-2023 13:00,7.2,
29-Jun-2023 14:00,9.4,
29-Jun-2023 15:00,9.7,
29-Jun-2023 16:00,11.1,
29-Jun-2023 17:00,10.9,
29-Jun-2023 18:00,14.1,
29-Jun-2023 19:00,10.9,
29-Jun-2023 20:00,17.6,
29-Jun-2023 21:00,17.7,
29-Jun-2023 22:00,15,
29-Jun-2023 23:00,13.8,
30-Jun-2023 00:00,13.1,
30-Jun-2023 01:00,14.4,
30-Jun-2023 02:00,14.2,
30-Jun-2023 03:00,14.1,
30-Jun-2023 04:00,15.1,
30-Jun-2023 05:00,14.3,
30-Jun-2023 06:00,18.5,
30-Jun-2023 07:00,18.9,
30-Jun-2023 08:00,13.4,
30-Jun-2023 09:00,18.7,
30-Jun-2023 10:00,9.1,
30-Jun-2023 11:00,7.8,
30-Jun-2023 12:00,1.8,
30-Jun-2023 13:00,7.3,
30-Jun-2023 14:00,8.9,
30-Jun-2023 15:00,10.5,
30-Jun-2023 16:00,10.1,
30-Jun-2023 17:00,11.4,
30-Jun-2023 18:00,15.6,
30-Jun-2023 19:00,15.3,
30-Jun-2023 20:00,20.4,
30-Jun-2023 21:00,26.1,
30-Jun-2023 22:00,23.5,
30-Jun-2023 23:00,24.8,
